Regional Weather Roundup
Issued by NWS

Home | Current Version | Previous Version | Graphics & Text | Print | Product List | Glossary Off
Versions: 1 2 3 4 5 6 7 8 9 10 11 12 13 14 15 16 17 18 19 20 21 22 23 24 25 26 27 28 29 30 31 32 33 34 35 36 37 38 39 40 41 42 43 44 45 46 47 48 49 50

000
ASUS43 KTOP 211108
RWRKS

WEATHER ROUNDUP FOR KANSAS
NATIONAL WEATHER SERVICE GOODLAND KS
600 AM CDT MON MAY 21 2018

NOTE:  "FAIR" INDICATES FEW OR NO CLOUDS BELOW 12,000 FEET WITH NO
SIGNIFICANT WEATHER AND/OR OBSTRUCTIONS TO VISIBILITY.

KSZ001>006-013>018-027>032-041>047-211200-
NORTHWEST KANSAS

CITY           SKY/WX    TMP DP  RH WIND       PRES   REMARKS
GOODLAND       FOG       48  48 100 S8        30.08F VSB 3/4
HAYS           CLOUDY    54  52  93 W3        30.11R
HILL CITY      FOG       50  50 100 SW3       30.11R VSB 1/4
RUSSELL        CLOUDY    55  54  96 CALM      30.09R
$$

KSZ061>065-074>080-084>089-211200-
SOUTHWEST KANSAS

CITY           SKY/WX    TMP DP  RH WIND       PRES   REMARKS
DODGE CITY     FOG       52  51  97 SE9       30.10R VSB 1/4
ELKHART        CLEAR     54  51  89 SE9       30.08F
GARDEN CITY    CLEAR     48  47  96 SE6       30.09R FOG
GREAT BEND     CLEAR     50  49  96 E5        30.10R
LIBERAL        CLEAR     52  50  93 SE8       30.09F
PRATT          FOG       54  53  96 CALM      30.10S VSB 1/4
$$

KSZ066>073-081>083-090>101-211200-
SOUTHEAST KANSAS

CITY           SKY/WX    TMP DP  RH WIND       PRES   REMARKS
CHANUTE        CLOUDY    59  59 100 NW7       30.07R FOG
COFFEYVILLE    CLEAR     59  58  96 CALM      30.05R FOG
HUTCHINSON     CLOUDY    56  55  97 CALM      30.09R
MEDICINE LODGE   N/A     53  52  96 CALM        N/A
NEWTON         CLOUDY    56  54  93 NW5       30.09S
PARSONS        CLEAR     57  57 100 CALM      30.07R FOG
WICHITA INTL   MOCLDY    59  56  89 N6        30.08S
WICHITA JABRA  CLOUDY    58  58 100 NW6       30.08S
WICHITA MCCONL CLEAR     56  55  95 N7        30.08R
WINFIELD       FOG       53  53 100 W3        30.08S VSB 1/4
$$

KSZ007>012-019>026-033>040-048>060-102>105-211200-
NORTHEAST KANSAS

CITY           SKY/WX    TMP DP  RH WIND       PRES   REMARKS
CONCORDIA      CLOUDY    54  52  93 NW3       30.08F
EMPORIA        CLOUDY    57  54  89 NW8       30.07R
LAWRENCE       CLOUDY    61  60  97 W12       30.04S FOG
MANHATTAN      CLOUDY    56  54  93 VRB7      30.09R
MARYSVILLE     CLOUDY    54  52  94 CALM      30.08R
OLATHE IND     CLOUDY    61  60  97 W6        30.05R FOG
OLATHE EXE     CLOUDY    59  59 100 W7        30.04R FOG
SALINA         CLOUDY    57  53  86 NW7       30.10R
TOPEKA BILLARD CLOUDY    59  57  93 W9        30.05S
TOPEKA FORBES  CLOUDY    59  57  93 W10       30.06R
$$



USA.gov is the U.S. government's official web portal to all federal, state and local government web resources and services.